Home > Weather > Christiansted > Past weeks

Flag for US Virgin Islands Weather for the Past 2 Weeks in Christiansted, US Virgin Islands

Now
79 °F

Passing clouds.


Feels Like: 82 °F
Forecast: 74 / 83 °F
Wind: 7 mph from East

Location: Christiansted / Henry E. Rohlsen Airport - Saint Croix

Current Time: Feb 7, 2016 at 8:38:52 PM

Latest Report: Feb 7, 2016 at 7:53 PM


Visibility: 10 mi

Pressure: 30.04 "Hg

Humidity: 77%

Dew point: 71 °F

Location of ChristianstedLocation

Historic Weather in Christiansted — Graph

°F

Christiansted Temperature Yesterday

Maximum temperature yesterday: 85 °F (at 12:53 PM)
Minimum temperature yesterday: 69 °F (at 4:53 AM)
Average temperature yesterday: 78 °F

High & Low Weather Summary for the Past Weeks

 TemperatureHumidityPressure
High87 °F (Jan 26, 11:53 AM)91% (Jan 25, 6:53 AM)30.16 "Hg (Jan 25, 6:53 AM)
Low68 °F (Feb 3, 4:53 AM)48% (Jan 31, 3:11 PM)29.89 "Hg (Feb 4, 3:53 PM)
Average79 °F72%30.03 "Hg
* Reported Jan 23 5:53 PM — Feb 7 5:53 PM, Christiansted, Weather by CustomWeather, © 2016

Note: Actual official high and low records may vary slightly from our data, if they occured in-between our weather recording intervals... More about our weather records

Advertising

Christiansted Weather History for the Previous 24 Hours

 ConditionsComfort  
Time TempWeatherWind HumidityBarometerVisibility
5:53 PM
Sun, Feb 7
81 °FSunny.7 mph72%30.01 "Hg10 mi
4:53 PM83 °FSunny.9 mph65%30.00 "Hg10 mi
3:53 PM84 °FPassing clouds.12 mph63%29.99 "Hg10 mi
2:53 PM86 °FSunny.16 mph57%29.99 "Hg10 mi
1:53 PM86 °FPassing clouds.16 mph61%30.02 "Hg10 mi
12:53 PM85 °FScattered clouds.15 mph63%30.05 "Hg10 mi
11:53 AM86 °FPassing clouds.14 mph61%30.06 "Hg10 mi
10:53 AM86 °FScattered clouds.14 mph59%30.08 "Hg10 mi
9:53 AM85 °FScattered clouds.16 mph61%30.08 "Hg10 mi
8:53 AM82 °FScattered clouds.16 mph70%30.06 "Hg10 mi
7:53 AM80 °FScattered clouds.13 mph74%30.05 "Hg10 mi
6:53 AM79 °FScattered clouds.15 mph77%30.03 "Hg10 mi
5:53 AM79 °FPassing clouds.14 mph74%30.02 "Hg10 mi
4:53 AM79 °FPassing clouds.15 mph77%30.00 "Hg10 mi
3:53 AM79 °FPartly cloudy.16 mph77%30.01 "Hg10 mi
2:53 AM79 °FMostly cloudy.18 mph77%30.02 "Hg10 mi
2:34 AM79 °FPassing clouds.17 mph77%30.04 "Hg10 mi
1:53 AM80 °FMostly cloudy.14 mph74%30.05 "Hg10 mi
12:53 AM80 °FOvercast.14 mph74%30.07 "Hg10 mi
12:25 AM80 °FOvercast.15 mph76%30.08 "Hg10 mi
12:12 AM80 °FMostly cloudy.12 mph76%30.09 "Hg10 mi
11:53 PM
Sat, Feb 6
80 °FPartly cloudy.13 mph76%30.08 "Hg10 mi
10:53 PM79 °FClear.7 mph77%30.09 "Hg10 mi
9:53 PM80 °FClear.8 mph74%30.09 "Hg10 mi
8:53 PM80 °FPassing clouds.9 mph76%30.08 "Hg10 mi
Weather by CustomWeather, © 2016

See weather overviewHow to use our weather pages